RH
54 55 53 51 50 47 45 44 42 42 42 41 40 36 31 29 26 21 22 21 21 18 17 19 21 19 21 24 27 30 34 38 37 36 35 33 31 30 28 29 30 31 32 32 33
56 57 54 52 50 48 46 44 43 43 43 43 43 39 34 30 26 22 21 20 18 18 18 19 20 21 20 24 27 29 34 38 37 36 36 34 32 32 32 32 32 31 32 31 31
55 56 55 52 51 49 46 45 44 45 46 47 45 43 38 31 27 23 23 21 18 16 14 15 16 19 20 21 22 24 27 29 32 32 31 33 33 32 33 36 34 31 31 30 31
53 54 53 52 50 50 47 47 48 48 51 53 52 48 44 37 30 28 26 23 21 18 15 14 13 13 15 18 17 17 19 20 23 23 25 26 26 27 27 27 28 30 29 26 23
51 51 51 53 52 54 54 54 58 57 58 60 59 55 49 44 37 33 29 23 21 19 17 16 15 14 14 14 15 14 15 16 16 16 17 17 18 18 17 21 19 18 18 18 17
64 59 59 66 65 67 70 70 73 69 69 69 67 63 58 48 41 34 30 23 19 19 18 16 15 15 14 15 16 15 14 15 16 17 18 18 17 17 18 17 16 15 16 17 18
86 88 86 85 86 81 82 78 77 75 74 76 72 64 61 50 37 34 31 24 19 16 16 15 14 15 15 16 16 17 17 17 16 16 18 19 20 21 21 20 18 19 21 22 23
91 92 95 95 92 90 89 84 81 80 75 72 69 67 54 49 35 31 29 22 22 19 15 15 14 15 15 17 18 18 18 18 17 19 20 19 21 19 19 19 20 23 24 25 26
86 90 97 95 97 94 90 82 83 81 81 74 70 69 53 44 34 23 23 23 23 16 15 16 15 16 17 20 21 21 21 21 21 21 22 22 22 23 21 21 23 27 28 29 30
52 72 93 98 98 93 86 85 86 87 79 76 68 71 60 52 43 33 25 27 30 26 17 18 18 17 18 21 25 23 23 23 24 23 25 26 26 26 28 28 32 32 33 34 35
41 41 66 86 91 91 94 89 91 87 79 76 64 64 57 51 41 36 33 33 29 25 26 25 22 23 22 22 24 25 26 27 27 27 28 27 30 29 35 36 38 40 41 40 40
36 37 34 33 44 53 65 66 75 71 65 60 49 46 46 49 46 34 33 29 28 25 25 24 28 25 26 28 30 32 32 33 31 30 30 31 32 39 38 40 42 44 46 46 43
34 34 34 35 35 41 45 49 51 66 54 40 31 33 32 36 35 27 31 31 28 28 29 30 26 27 29 32 34 36 38 37 34 31 30 30 30 35 38 37 37 38 39 38 38
32 33 36 40 42 45 42 47 45 41 44 38 25 23 24 27 27 18 24 30 32 34 37 36 33 33 35 37 38 40 37 34 33 33 35 31 37 30 38 38 37 38 39 40 42
31 33 30 40 43 38 38 49 49 48 51 23 25 26 28 27 27 31 33 37 38 37 36 36 33 33 34 35 35 33 31 31 30 31 31 32 34 32 39 40 41 42 48 52 53
33 33 38 43 46 38 47 57 60 57 56 28 30 33 38 35 28 30 38 38 37 40 37 35 35 34 34 35 34 35 34 34 35 34 36 29 33 27 41 43 47 50 55 57 58
36 38 42 46 46 47 52 57 65 63 32 32 29 31 36 35 31 29 30 31 33 38 37 35 34 37 35 33 34 35 36 46 46 46 41 34 39 34 43 46 50 55 58 61 63
39 41 42 59 62 54 59 73 74 51 41 38 33 32 37 36 37 34 37 38 33 33 34 36 36 32 31 33 34 33 34 44 47 55 43 38 44 41 47 50 56 60 66 70 69
41 43 51 47 50 76 81 93 78 54 46 44 41 39 40 41 40 42 39 35 32 34 39 41 38 33 31 29 30 34 38 42 53 52 58 43 52 51 51 56 62 68 73 71 68
39 45 47 51 71 80 83 73 62 48 45 47 47 45 46 43 43 43 42 35 35 38 41 41 43 37 33 31 30 35 41 53 64 72 69 50 48 55 57 61 69 67 68 64 66
43 44 39 46 60 76 90 86 59 53 57 59 55 56 52 48 49 51 49 43 42 43 44 42 42 38 36 36 38 42 46 52 61 63 73 60 54 52 58 64 62 60 64 70 68
50 45 39 38 67 69 65 57 58 61 61 64 66 65 57 58 53 46 48 48 48 47 48 45 49 46 42 44 42 43 46 52 70 59 65 67 48 59 63 61 59 60 65 65 67
58 49 46 47 71 62 54 53 51 51 55 65 62 58 61 62 61 57 56 57 57 55 51 48 51 60 52 48 46 50 51 53 65 73 63 75 61 66 55 59 59 64 70 72 72
60 59 55 63 50 44 43 46 52 50 49 55 58 59 64 61 59 61 61 62 61 58 53 55 59 55 51 50 55 57 58 67 72 80 69 68 53 53 57 65 66 71 76 73 73
62 59 45 60 53 43 50 41 41 47 47 51 51 53 69 77 73 65 60 61 60 55 56 62 62 61 48 53 57 52 54 64 70 59 65 41 42 41 52 66 76 78 73 75 85
67 57 55 40 46 52 56 44 39 38 44 48 53 59 80 71 69 71 71 69 65 71 70 70 72 66 59 59 60 57 58 57 53 42 42 46 38 41 54 67 76 80 83 88 90
69 61 55 48 51 59 40 36 35 43 39 44 49 69 50 47 73 74 74 80 79 81 70 68 70 68 65 61 59 66 55 50 53 46 50 58 48 54 66 74 86 90 91 92 88